GEFSGL_500_meanwind_270.txt.gz
Wind_Speed
12 13 13 13 13 14 13 14 14 14 14 13 13 13 14 14 14 14 14 14 14 15 15 15 15 14 14 13 13 13 13 13 13 13 12 13 13 14 14 15 15 15 15
15 14 14 14 14 14 14 15 15 15 16 16 15 15 15 15 15 15 15 16 16 15 15 16 16 16 15 15 15 15 15 14 14 14 14 14 14 15 15 15 15 16 16
17 17 16 16 16 16 16 16 16 17 17 18 17 17 17 16 16 16 16 17 17 17 16 16 16 16 16 15 15 15 15 15 15 15 15 16 16 17 17 17 17 17 18
18 18 18 18 18 18 18 18 18 18 18 19 18 18 18 18 18 18 18 18 18 18 18 17 17 16 16 16 16 17 17 17 17 17 17 17 18 18 18 19 19 19 19
20 20 20 19 20 20 20 20 20 20 20 20 20 20 19 20 20 19 19 19 19 19 19 19 18 18 18 18 18 18 18 18 19 19 19 18 19 20 20 21 21 21 21
22 22 22 22 22 22 22 23 22 22 22 22 22 22 21 21 21 21 21 21 21 20 20 20 20 20 20 20 19 20 20 19 19 20 20 20 21 21 21 21 22 22 22
23 23 24 24 24 24 24 24 24 24 24 24 24 23 23 23 23 23 23 22 23 23 23 23 22 22 22 21 21 21 21 21 21 21 21 22 22 22 22 23 23 23 22
25 25 25 25 25 25 25 25 25 25 26 26 26 25 25 25 25 25 25 25 24 24 24 24 23 24 23 23 23 23 23 23 23 22 22 23 23 23 24 24 24 24 24
27 28 27 27 27 26 26 26 27 27 27 28 28 28 28 28 28 27 27 27 26 26 26 26 26 25 26 26 25 25 25 25 24 24 24 24 24 24 24 24 25 25 25
29 29 29 29 29 29 29 29 29 29 29 29 29 29 29 29 29 29 29 28 28 28 28 28 28 28 27 27 26 26 26 26 26 25 26 26 26 26 25 25 25 25 25
30 30 30 31 31 31 31 31 30 31 30 30 30 30 30 30 30 29 29 29 29 29 29 29 30 29 28 28 27 27 26 26 26 26 27 27 27 26 26 26 27 26 26
31 31 31 32 31 32 32 32 32 32 31 31 31 31 31 31 31 31 31 31 31 31 30 30 30 29 29 28 28 28 28 28 28 27 27 27 27 27 27 27 28 28 28
33 33 33 33 32 32 32 33 33 33 32 32 32 32 32 31 31 31 31 32 31 31 31 31 31 30 30 30 30 30 30 30 30 29 29 29 29 28 28 28 29 28 29
33 33 33 34 33 32 32 33 33 33 34 34 33 33 32 32 32 32 32 32 32 32 32 32 32 33 32 32 33 32 32 32 32 31 30 30 30 29 29 30 30 30 30
32 33 33 33 33 33 34 34 34 34 34 34 34 35 35 34 33 33 33 33 33 34 34 34 34 34 34 34 34 34 34 33 32 32 31 31 30 30 30 30 31 31 31
33 33 32 33 33 34 34 34 35 35 35 36 36 36 36 35 35 35 35 35 35 35 35 34 34 35 35 35 36 36 36 35 34 34 33 33 32 31 31 32 32 32 31
34 33 33 34 34 35 35 35 35 35 35 36 36 36 36 36 37 37 37 37 37 37 37 36 35 36 36 37 37 37 37 36 36 35 34 34 34 33 33 33 33 32 32
35 35 35 34 34 35 35 35 35 35 35 35 36 37 37 37 37 37 37 37 37 37 37 37 37 37 37 37 38 37 37 37 36 36 35 35 35 34 33 33 33 32 32
36 37 36 36 36 35 36 36 36 36 35 35 35 36 37 37 38 39 39 39 38 38 38 37 37 37 37 37 38 38 38 38 38 37 36 35 35 35 34 34 33 33 33
36 36 36 36 37 37 36 36 36 36 37 36 36 36 37 37 38 39 40 40 39 38 38 38 37 38 38 38 38 38 37 37 38 37 37 36 36 36 36 35 35 35 35
35 36 36 36 36 36 36 36 36 36 36 36 36 36 37 37 38 38 39 39 39 39 39 39 39 39 38 37 37 37 37 37 37 38 37 36 36 36 36 36 36 36 36
35 35 35 35 35 35 36 36 36 36 37 37 37 37 36 36 37 37 38 39 39 39 40 40 39 39 38 38 37 37 37 36 36 37 37 38 37 37 36 36 36 36 37
33 34 35 35 35 35 36 36 36 35 35 36 35 35 35 35 36 36 36 37 38 38 38 38 38 38 38 38 37 37 37 36 37 37 38 38 38 37 37 37 37 37 36
33 33 34 34 35 35 35 36 36 35 35 36 36 35 35 36 36 36 36 36 37 37 37 38 38 38 38 37 37 37 37 36 37 37 38 38 38 38 38 38 38 38 38
32 32 33 33 34 34 35 35 35 36 36 36 37 37 36 36 36 36 36 36 36 36 37 37 37 37 37 36 36 37 37 37 37 37 38 38 39 39 39 39 39 39 39
31 31 31 32 33 33 33 34 34 34 35 35 36 36 36 36 35 35 35 35 35 36 36 36 36 36 36 36 36 37 37 37 38 38 38 39 39 39 39 40 41 40 40

GEFSGL_500_meanwind_276.txt.gz
Wind_Speed
14 14 14 14 13 13 14 14 15 15 15 15 15 15 15 15 15 15 15 15 15 15 15 14 14 14 15 14 14 14 14 14 14 14 14 14 14 14 14 14 14 14 14
17 17 16 16 15 15 15 16 16 16 16 16 17 17 17 17 17 17 17 17 17 17 17 16 16 16 16 16 16 16 16 16 15 15 15 15 15 15 16 16 16 16 16
19 18 18 18 17 17 17 17 18 18 19 19 19 19 19 19 19 19 19 19 18 18 18 18 17 17 17 17 17 17 18 18 17 17 17 17 17 17 17 18 18 18 18
21 20 20 20 20 20 20 20 20 20 21 21 21 21 21 21 21 21 21 21 20 20 20 19 19 19 19 19 19 19 19 19 19 18 18 18 18 18 18 18 19 19 20
22 22 22 22 22 22 22 22 23 22 22 22 22 22 22 22 23 23 22 22 23 22 22 21 21 21 20 21 21 20 20 20 20 20 20 20 20 20 20 20 20 21 21
24 24 24 24 24 24 24 25 25 25 24 24 24 24 24 24 24 25 25 24 24 25 25 24 24 23 22 22 22 22 22 22 22 21 21 22 22 22 22 21 22 22 22
26 26 26 26 26 27 27 27 27 27 26 27 26 26 26 26 26 27 27 27 26 26 26 26 27 26 25 24 24 24 24 24 24 24 23 24 23 23 23 23 23 23 23
28 28 27 27 28 29 29 28 29 29 29 29 29 29 28 28 28 28 28 28 29 29 29 28 28 28 27 26 26 26 26 26 26 25 25 25 25 25 25 25 25 25 25
29 29 29 29 29 29 29 29 29 30 30 30 30 31 30 30 30 30 30 30 30 30 30 30 29 29 29 28 27 27 27 27 27 27 27 27 27 27 27 27 26 26 26
30 30 30 30 30 30 30 30 30 30 30 30 31 31 31 31 31 32 32 32 31 31 31 30 30 30 30 29 29 28 28 29 29 29 29 29 29 29 29 28 28 28 28
31 30 31 30 30 30 31 31 31 31 31 30 31 32 32 32 32 32 32 32 32 32 32 32 32 32 31 31 31 30 29 29 30 30 30 30 31 30 30 30 30 30 30
31 31 32 32 31 31 32 32 32 32 32 31 31 31 32 32 32 32 32 32 32 33 32 32 32 32 32 32 32 31 31 31 31 31 31 31 31 32 31 31 31 31 31
31 32 32 32 32 32 32 33 33 34 34 34 33 32 32 32 31 32 32 33 33 33 33 33 33 33 33 33 32 32 32 33 33 33 32 32 32 32 32 32 32 32 31
33 32 32 32 32 32 33 34 34 34 35 34 34 34 33 32 32 32 33 33 33 34 34 34 33 33 34 34 34 34 34 35 35 35 35 34 34 33 33 33 33 33 32
33 33 33 33 33 33 33 33 34 34 35 35 35 35 34 34 33 33 33 34 34 34 35 35 35 35 35 35 35 35 35 35 35 35 35 34 34 34 34 34 34 34 33
34 34 34 34 34 34 34 33 33 34 35 36 36 36 36 36 35 35 35 35 36 37 37 36 36 36 36 36 36 36 36 35 35 35 35 35 35 35 35 35 35 35 34
34 35 35 35 34 34 35 34 34 34 34 35 36 36 36 36 36 36 36 37 38 39 38 38 38 37 37 37 37 36 36 36 36 36 36 36 36 36 36 36 36 36 35
35 35 35 35 35 35 34 34 34 34 35 35 35 36 36 36 37 38 38 39 39 39 38 38 38 38 38 38 37 37 37 37 37 37 37 37 37 36 36 36 36 35 35
35 35 35 35 35 35 35 35 34 35 35 35 36 36 37 37 37 38 39 40 40 40 39 39 38 38 38 38 38 38 38 38 38 38 38 38 38 37 37 37 37 36 36
34 34 34 34 35 35 35 35 35 35 36 36 36 37 38 38 38 38 39 39 40 40 40 39 39 39 39 39 39 39 39 39 39 39 38 38 38 38 38 38 37 37 37
33 33 33 33 34 34 35 35 36 36 36 36 37 37 37 38 38 39 39 39 39 38 38 38 38 38 38 39 39 40 39 39 39 39 38 38 38 39 39 38 38 38 38
33 34 34 34 34 34 34 35 35 35 36 37 38 38 38 38 39 39 39 39 39 38 39 39 38 38 38 39 39 39 39 40 40 39 39 38 39 38 38 38 39 39 39
33 34 34 34 34 34 34 34 34 35 35 36 37 38 38 38 38 37 38 39 38 38 38 38 38 38 38 38 38 38 38 39 39 40 40 39 39 39 39 39 39 40 40
33 33 32 32 33 34 34 34 34 34 34 35 35 36 36 36 36 37 37 37 38 38 38 37 37 37 37 38 38 38 38 38 39 39 39 39 39 39 39 39 39 40 40
33 32 32 32 32 33 33 33 34 34 34 34 35 35 35 35 36 36 37 37 38 38 38 38 38 37 37 37 37 37 37 38 38 38 39 39 39 39 39 40 40 40 40
33 32 32 32 32 32 33 34 34 35 35 35 35 35 35 35 35 35 35 35 36 36 36 36 37 37 37 37 36 36 37 37 38 38 38 38 39 39 39 39 39 39 40

GEFSGL_500_meanwind_282.txt.gz
Wind_Speed
17 17 17 17 16 16 16 16 16 15 15 15 15 15 15 16 16 15 16 15 16 15 16 16 17 16 16 15 14 14 14 14 14 14 14 15 16 16 15 15 15 15 14
19 19 19 18 18 18 18 18 18 18 18 17 17 17 17 17 17 17 18 18 18 18 18 18 17 17 17 17 16 16 16 16 16 16 16 16 16 16 16 16 16 16 16
21 21 21 21 21 20 20 20 20 20 20 19 19 19 19 19 19 19 20 20 20 20 20 19 19 19 18 18 18 18 18 18 18 18 18 18 18 17 17 17 17 17 17
22 22 22 22 22 23 23 22 22 22 21 21 21 21 21 22 21 21 21 21 21 21 21 21 21 21 21 21 21 21 20 20 20 20 19 19 19 19 18 18 18 19 19
23 23 23 23 24 25 25 25 24 24 24 23 23 23 23 23 23 23 23 23 23 22 22 23 23 23 23 23 23 23 22 22 22 21 21 21 21 20 20 20 20 20 20
23 23 23 24 24 25 25 25 25 25 25 25 25 25 25 24 24 25 25 25 24 24 24 24 25 25 25 25 25 24 24 24 23 23 23 22 22 22 22 22 22 22 22
24 25 25 25 25 26 26 27 27 26 26 26 27 27 27 27 27 27 27 27 26 26 26 26 26 26 26 26 26 26 26 26 25 25 25 24 24 24 24 24 24 24 23
26 27 27 26 26 27 27 27 27 28 28 28 28 28 28 28 29 29 28 28 28 27 27 27 27 27 27 27 28 28 28 28 27 27 27 26 26 25 26 26 26 26 26
27 28 28 28 28 28 28 27 28 28 29 29 29 30 30 30 30 30 30 29 28 28 28 28 28 29 29 30 29 29 30 30 29 28 28 28 28 28 28 28 28 28 28
28 28 28 28 29 29 29 29 29 29 30 30 30 31 31 31 31 31 31 30 30 30 30 30 30 31 31 31 31 31 31 31 31 30 30 30 30 30 29 29 29 29 30
28 29 29 29 30 30 30 30 31 31 31 31 31 32 32 32 32 32 32 31 31 30 31 31 32 32 32 32 32 32 32 32 32 32 32 32 31 31 30 30 30 29 30
29 29 29 29 30 30 31 31 31 31 31 32 32 32 33 32 32 32 32 31 31 30 31 32 32 32 32 32 32 31 32 33 33 33 33 32 32 31 31 30 30 30 30
29 29 30 30 30 30 31 31 31 31 31 31 31 32 32 32 32 31 32 32 32 32 31 31 31 32 32 32 32 32 32 32 33 32 32 33 33 32 31 31 31 31 32
29 29 30 30 30 31 31 31 31 31 31 31 31 32 32 32 32 33 33 32 33 32 32 32 31 30 31 31 32 32 32 32 32 32 33 33 33 33 32 32 32 32 32
29 29 30 31 31 31 31 31 31 31 31 31 32 32 32 32 32 33 33 33 34 34 34 34 33 32 32 32 32 33 33 33 33 33 33 33 33 33 33 33 33 33 33
30 30 31 31 31 31 31 30 31 31 32 32 32 32 32 32 32 32 33 34 34 34 35 35 34 34 33 33 33 33 34 35 35 35 35 35 34 34 34 34 35 35 35
30 31 31 31 31 31 31 31 31 31 31 31 31 31 31 31 32 33 33 34 35 35 35 35 35 34 34 34 33 33 34 35 36 36 36 36 35 35 35 35 35 35 36
30 30 31 31 31 32 32 33 32 32 32 32 31 31 30 30 31 32 33 34 35 35 35 35 36 35 35 35 35 35 36 36 36 36 37 37 38 38 37 37 37 37 37
30 30 31 31 31 32 33 33 33 33 33 33 32 32 31 31 31 32 33 34 34 35 35 35 36 36 36 36 36 37 38 38 37 37 37 38 39 39 39 38 38 38 38
30 30 31 31 31 31 32 33 33 33 33 33 33 33 33 32 32 32 33 33 34 35 36 36 36 36 37 37 37 37 38 39 39 39 38 39 39 39 40 39 39 39 39
30 30 31 31 31 32 31 31 32 32 32 32 32 33 33 33 34 35 35 35 35 35 36 36 37 37 37 38 38 38 38 39 39 39 40 40 40 40 40 40 40 40 40
31 31 31 32 32 32 32 32 32 32 32 32 32 33 34 34 35 35 36 37 36 36 36 36 37 37 37 38 38 39 39 39 39 40 40 40 40 40 40 40 41 41 41
32 32 32 32 32 32 32 32 32 33 33 33 33 34 35 35 36 36 37 37 37 37 36 36 37 36 36 37 38 39 39 39 39 38 38 39 39 40 40 40 40 41 41
34 34 34 34 34 33 33 32 32 32 33 34 34 35 35 36 37 37 37 37 36 37 37 37 37 38 38 38 38 39 39 40 39 38 38 39 39 39 39 39 39 40 40
34 34 34 34 34 34 34 34 33 33 33 34 34 34 35 35 36 36 36 36 36 36 37 37 38 38 38 39 39 39 39 39 39 39 39 39 39 38 38 39 39 39 39
33 34 34 34 34 34 34 34 34 34 34 34 34 33 34 34 35 35 35 36 36 36 37 38 38 38 38 39 39 38 38 38 38 38 38 38 38 38 38 39 39 39 39

GEFSGL_500_meanwind_288.txt.gz
Wind_Speed
19 19 19 19 19 18 18 17 17 17 17 17 17 17 17 16 16 17 17 17 17 16 16 16 16 16 16 16 16 16 16 16 16 16 15 15 15 15 14 14 14 14 14
20 20 20 20 19 19 19 19 19 19 19 19 18 19 19 19 18 18 18 19 19 18 18 18 18 17 18 17 17 18 18 18 17 17 17 16 16 17 16 16 16 16 16
20 21 21 21 20 21 20 20 20 20 20 20 21 20 21 21 21 20 20 21 21 20 20 20 20 19 19 19 19 19 19 19 19 19 18 18 18 18 18 18 16 16 16
21 21 21 21 22 22 22 22 22 22 22 23 23 22 22 23 22 22 22 22 22 22 22 22 21 21 21 21 21 21 21 21 21 21 21 21 20 19 19 19 19 19 18
22 22 22 22 22 23 23 23 24 24 25 25 24 24 23 23 24 24 24 23 24 23 23 23 23 23 23 23 23 22 22 23 23 22 22 22 22 21 21 21 21 21 20
24 24 24 24 24 24 23 24 24 25 25 25 25 25 24 24 24 24 25 25 25 24 24 24 25 25 25 25 25 25 24 24 24 24 24 23 23 23 23 23 23 22 22
26 26 25 25 25 25 25 25 25 25 25 25 25 25 25 25 26 26 26 26 26 26 26 26 25 26 27 27 27 27 27 27 26 26 25 25 25 25 25 25 25 24 24
26 26 26 25 25 25 25 25 26 25 25 26 26 26 27 27 27 27 27 28 27 27 27 28 28 27 28 28 28 28 29 29 29 29 28 28 28 28 28 27 27 26 26
26 26 26 26 26 27 27 27 27 26 26 27 28 28 28 28 28 28 29 29 29 29 29 29 29 29 29 29 29 29 30 30 30 30 30 30 29 29 29 29 29 29 28
27 27 27 27 27 27 28 28 27 27 27 28 28 28 29 29 30 30 30 30 30 30 30 30 31 31 31 31 31 30 30 31 31 30 30 30 30 30 30 31 31 30 30
27 27 27 28 28 29 28 28 29 28 28 29 29 29 29 30 30 31 31 31 31 31 31 31 31 31 31 31 32 31 30 31 31 31 31 31 31 31 31 32 31 31 30
28 28 28 29 29 29 29 29 29 29 29 30 30 30 30 30 30 30 31 32 32 32 32 31 31 31 31 32 32 32 32 32 32 32 32 32 32 32 32 32 31 31 31
29 29 29 30 30 30 30 29 30 30 31 30 30 30 30 31 31 31 31 32 32 33 32 32 31 31 31 32 33 33 33 33 33 33 33 33 33 33 32 32 31 31 30
29 30 30 30 30 30 29 30 30 30 30 30 30 31 31 30 31 31 32 32 32 32 33 33 32 32 33 33 33 33 34 34 34 34 34 33 34 33 33 33 32 32 32
29 29 29 29 29 29 29 29 28 28 29 29 30 30 30 30 30 30 30 31 32 33 33 33 32 33 33 34 33 34 34 34 34 34 34 34 34 34 34 33 33 34 33
29 29 29 30 29 29 30 30 29 29 29 30 30 30 30 30 31 30 30 31 31 32 32 32 33 33 34 35 35 34 34 34 34 34 34 34 34 34 34 34 34 34 34
30 30 30 29 29 30 30 30 30 30 30 30 31 31 31 31 31 31 31 32 32 32 32 32 33 33 34 34 35 35 35 35 34 35 35 34 35 35 35 35 35 35 34
30 31 30 30 30 30 30 30 30 30 31 31 31 31 32 32 32 32 32 32 32 33 32 32 33 33 33 34 35 35 35 35 35 35 35 35 35 35 35 35 35 35 35
31 31 31 31 31 31 31 31 31 31 31 32 32 32 32 33 32 32 32 32 33 33 33 33 33 33 33 33 34 34 35 35 35 35 35 35 35 35 35 35 36 36 35
31 31 32 32 32 31 31 31 31 31 31 32 32 32 32 32 33 33 32 32 32 33 33 33 33 33 33 33 33 34 35 35 35 35 36 36 36 36 35 36 36 36 36
32 32 32 32 32 32 32 32 32 32 32 32 33 33 33 33 33 34 34 33 33 34 34 34 34 33 33 33 33 33 34 34 35 36 36 36 37 37 37 37 37 37 36
34 34 34 33 33 33 33 33 33 33 33 33 33 33 34 34 34 34 35 35 36 36 36 36 35 35 35 35 35 35 35 35 35 36 36 37 37 37 37 37 37 37 37
34 34 34 34 34 34 34 34 35 35 35 35 35 35 36 36 36 36 37 37 37 37 37 37 37 36 37 36 36 37 37 37 37 37 37 37 38 37 38 38 38 38 38
33 34 34 35 35 35 36 36 37 37 37 37 37 37 37 37 37 37 37 37 38 38 38 38 39 39 39 38 38 38 38 38 37 37 37 37 37 37 37 38 38 38 38
33 34 34 34 35 36 36 37 38 38 39 39 39 39 39 38 38 38 38 38 38 38 38 39 39 40 40 40 40 40 40 39 39 38 38 38 38 38 38 38 38 38 39
34 35 35 35 35 36 36 37 38 38 39 40 40 39 39 39 39 39 39 39 39 39 39 39 39 39 40 41 41 41 41 40 40 41 40 40 40 40 40 40 40 40 40

GEFSGL_500_meanwind_294.txt.gz
Wind_Speed
17 17 17 17 16 17 17 18 17 17 16 16 16 16 16 16 17 17 17 17 17 17 16 16 16 17 17 17 16 17 17 17 16 16 17 17 16 16 16 16 15 15 15
17 17 17 18 18 18 19 19 18 18 18 18 18 18 18 19 19 19 19 18 18 18 18 18 18 18 18 18 18 18 17 17 17 16 17 17 16 16 15 16 16 16 15
18 18 19 19 19 19 20 20 20 19 19 19 19 20 21 20 20 20 20 20 20 20 20 19 19 18 19 19 19 19 19 19 19 18 18 18 18 17 17 17 17 17 16
19 19 20 20 20 20 20 20 20 20 21 21 22 22 23 22 21 21 21 22 22 22 22 22 21 21 20 19 19 20 20 20 20 20 20 20 19 19 19 19 18 18 18
20 20 20 20 20 20 20 20 20 21 22 22 23 23 23 23 23 23 23 22 23 23 23 23 23 22 22 21 21 21 22 22 22 22 22 21 21 21 21 21 20 20 20
20 20 21 21 21 21 21 22 22 22 23 23 23 24 24 24 24 24 24 24 24 24 24 25 24 25 24 24 24 24 24 24 24 24 24 23 23 23 23 23 23 23 23
21 22 22 23 22 22 22 22 23 23 24 25 25 24 24 24 24 25 26 26 26 26 26 26 26 26 27 26 26 26 25 25 25 25 25 25 25 25 25 25 25 25 24
22 23 24 24 23 23 24 23 24 24 25 25 25 25 25 25 25 26 27 27 27 27 27 27 27 27 28 28 28 27 27 27 27 27 27 27 27 27 27 27 27 26 27
23 23 24 24 24 24 24 24 24 24 25 25 26 26 27 27 27 27 27 27 27 27 27 28 28 28 28 29 30 29 29 29 29 28 28 28 29 29 29 29 29 28 28
23 23 24 24 24 25 25 25 25 25 25 26 26 27 27 28 28 27 27 28 28 28 28 29 29 29 29 29 30 30 29 30 30 30 29 30 30 30 30 29 29 29 29
25 24 25 25 25 26 26 26 26 26 26 26 26 27 27 28 28 29 28 29 29 29 29 30 30 30 30 30 31 31 31 31 31 31 31 30 31 30 29 29 29 29 29
27 27 27 27 27 27 27 27 27 27 27 27 27 27 27 28 29 29 29 29 29 29 30 31 31 31 31 31 31 31 32 32 31 31 31 31 30 29 30 30 29 30 30
27 28 29 29 29 29 28 28 28 28 28 28 28 27 27 27 28 29 30 30 30 30 30 30 31 31 31 31 31 30 31 32 32 31 31 31 31 31 31 31 31 31 32
27 28 28 29 29 29 29 29 29 29 28 29 29 28 28 28 28 28 29 28 28 29 29 30 30 31 32 32 32 32 32 32 32 32 32 32 32 32 32 32 32 32 32
27 28 28 28 29 28 29 29 29 29 29 29 29 29 29 29 29 29 29 27 27 28 28 29 30 30 31 31 33 33 32 32 33 33 33 33 33 33 33 33 33 33 33
28 28 29 29 29 29 30 30 29 29 29 29 29 30 30 30 30 30 30 30 29 28 28 28 29 29 30 30 31 32 32 33 34 34 33 33 34 34 34 35 35 35 34
29 29 29 30 29 29 29 30 30 30 30 30 30 30 30 31 31 31 31 31 31 30 29 28 28 29 30 30 30 30 31 32 34 35 35 35 36 36 36 36 36 36 35
30 30 30 30 30 31 31 31 31 30 30 30 30 31 31 30 31 31 32 32 32 32 32 31 30 30 30 30 30 31 31 31 32 33 35 36 37 37 37 37 37 36 36
30 30 30 31 31 32 32 32 32 32 31 31 31 31 32 32 32 32 33 33 33 33 33 33 33 32 31 31 31 31 31 32 32 33 34 35 36 37 37 38 38 38 37
31 31 31 31 31 32 32 32 32 32 32 32 32 33 34 34 34 34 34 34 34 34 34 34 34 34 33 33 33 33 32 33 33 33 34 34 35 36 37 38 38 38 38
31 31 31 31 31 32 33 33 32 32 33 33 33 34 35 35 35 35 36 35 35 35 35 35 34 35 35 35 34 34 34 34 35 35 35 35 36 36 37 37 38 38 38
31 31 31 31 32 32 32 33 33 33 33 34 34 35 36 36 36 36 36 36 36 36 36 36 36 36 36 37 37 36 36 36 37 36 36 37 36 36 36 37 38 38 38
30 30 31 31 32 32 32 32 32 33 33 34 35 35 36 37 37 37 36 37 37 37 37 37 37 37 37 37 38 38 38 38 38 38 38 37 37 37 37 37 37 38 37
31 31 31 31 32 32 32 32 33 33 34 34 35 36 37 37 37 37 37 37 38 38 38 38 38 38 38 38 38 39 39 39 39 39 39 39 39 38 38 38 37 38 38
32 32 32 32 33 33 33 33 34 34 35 35 35 36 36 36 37 37 38 38 38 38 38 38 38 38 39 39 39 39 40 40 40 40 40 40 40 40 39 39 39 39 39
32 33 33 33 33 33 33 34 34 34 35 35 35 35 35 36 36 37 37 37 37 38 38 39 39 39 40 40 40 40 41 41 41 41 41 41 41 41 40 40 40 40 39

GEFSGL_500_meanwind_300.txt.gz
Wind_Speed
17 17 17 16 16 16 16 17 17 18 17 18 19 19 19 18 17 17 17 17 17 17 17 17 17 17 17 17 17 17 17 17 17 17 17 17 17 18 18 18 17 18 17
18 18 18 18 17 17 17 18 18 18 18 19 19 20 20 20 20 19 19 19 19 19 19 18 18 17 18 18 18 19 19 19 19 19 19 19 19 18 19 19 19 19 18
19 19 19 19 19 19 19 19 19 20 19 20 20 20 21 21 22 22 22 20 20 20 20 20 20 20 19 19 20 20 20 20 20 21 21 21 20 20 20 20 20 20 19
20 20 20 21 20 20 20 20 21 21 21 21 22 22 22 22 23 23 23 23 23 22 22 22 22 22 22 21 21 21 21 21 22 22 22 22 21 21 21 20 20 19 19
20 20 21 21 21 21 21 21 22 22 23 23 23 23 23 23 23 23 24 24 24 24 24 24 24 24 25 24 23 23 23 22 23 23 23 22 22 22 21 21 21 21 20
21 21 21 21 21 21 21 22 22 22 23 23 23 24 24 25 25 24 25 25 25 26 26 25 26 26 27 27 26 26 26 25 25 25 25 24 24 23 23 23 23 23 22
22 22 22 22 22 22 21 21 22 22 23 23 24 24 24 25 25 25 26 26 26 27 27 27 27 27 27 27 28 28 28 27 27 27 26 26 26 26 25 25 25 25 25
22 22 22 22 23 23 22 22 22 22 22 23 24 24 24 24 25 26 26 26 27 27 27 28 28 28 28 28 29 29 29 29 28 28 28 28 28 28 27 27 26 26 25
22 22 22 22 23 24 24 24 23 23 23 23 24 23 24 24 25 26 26 27 27 27 28 28 27 27 28 28 29 30 29 29 29 29 30 30 30 29 29 28 28 27 26
24 24 23 24 24 25 25 26 26 25 25 24 24 25 25 25 25 26 27 27 28 28 28 28 29 29 29 28 29 30 30 30 30 30 31 31 31 30 30 30 29 29 29
24 25 25 25 25 26 26 26 26 26 26 26 26 26 26 26 26 27 28 28 28 28 29 29 29 29 29 29 30 30 31 31 31 31 31 31 31 31 31 31 30 30 29
25 25 26 26 27 28 28 28 28 28 27 26 26 26 27 27 27 28 28 28 28 28 28 29 31 31 30 30 30 30 30 31 31 31 32 32 31 31 31 32 32 31 31
25 26 27 28 28 29 29 29 30 29 28 28 28 28 29 29 29 29 28 28 28 28 29 30 30 31 31 30 30 29 30 30 31 31 32 32 32 32 32 32 32 32 32
26 26 27 29 29 30 29 30 30 30 30 30 30 30 31 31 31 31 30 29 29 29 29 30 30 30 31 30 31 31 31 31 31 31 32 32 32 33 34 34 34 34 34
28 29 29 30 30 30 31 31 31 31 31 31 32 32 32 33 33 33 32 32 31 31 30 30 30 30 31 31 31 31 32 32 32 32 33 33 33 33 33 34 35 35 35
30 30 30 30 31 31 32 32 33 33 33 33 33 33 33 33 33 34 33 33 33 32 32 31 31 31 31 32 32 32 32 32 32 32 32 33 34 34 34 35 36 36 36
29 30 31 31 32 33 33 33 34 34 34 34 34 34 33 33 34 34 34 33 33 33 33 33 33 33 33 33 33 33 33 33 33 33 33 34 34 35 35 36 36 37 37
31 31 31 31 32 32 32 33 33 33 34 34 34 33 33 33 33 33 33 34 34 34 34 34 34 34 35 35 35 34 34 34 34 35 35 35 35 35 35 35 36 36 37
31 31 31 31 31 31 31 32 32 33 33 33 33 33 33 33 33 33 33 34 34 35 35 35 35 35 35 35 36 36 36 36 36 36 36 36 36 36 36 36 36 37 38
32 31 31 31 31 31 31 32 32 32 32 32 32 33 33 34 34 34 34 35 35 35 35 35 35 35 35 35 35 36 36 36 36 37 37 37 37 38 38 38 38 38 38
32 32 32 32 32 32 32 32 32 32 32 32 32 33 34 34 34 35 35 35 36 36 36 36 36 36 36 36 36 36 36 36 36 36 37 38 38 38 38 38 38 38 38
32 32 32 32 32 32 33 33 32 32 32 33 33 34 34 35 34 35 35 36 36 36 36 36 36 37 37 36 36 36 36 36 36 36 37 37 38 38 38 38 38 37 38
32 32 32 33 33 33 33 32 32 32 32 33 33 33 34 34 34 35 35 36 36 36 36 36 37 37 37 37 37 37 37 37 37 37 37 38 38 38 38 38 38 39 39
32 32 32 33 33 33 33 32 32 32 32 32 33 34 34 35 35 36 36 36 36 36 36 36 37 37 37 38 38 38 38 39 39 39 38 38 39 39 40 40 40 39 40
32 33 33 33 33 33 32 32 32 32 33 33 33 34 35 35 36 36 36 36 36 36 36 37 37 37 37 38 38 38 39 40 40 41 41 41 41 40 40 40 40 40 40
33 33 33 33 33 32 33 33 33 33 33 33 33 34 34 35 35 35 35 36 36 36 37 37 37 37 38 38 38 39 39 40 40 41 41 41 41 40 40 40 40 41 41